Total_Precipitation_Accumulation
1.91 1.98 1.95 1.87 1.79 2.14 2.56 2.77 2.50 2.78 2.80 2.40 2.09 1.98 1.93 1.91 2.07 2.27 2.16 2.32 2.24 2.20 2.40 2.46 2.28 2.03 1.84 1.55 1.32 1.14 0.99 0.95 0.88 0.71 0.60 0.56 0.49 0.43 0.42 0.43 0.43 0.39 0.36
2.40 2.44 2.29 2.20 1.99 2.02 2.32 2.55 2.56 2.78 2.66 2.51 1.94 1.86 1.81 1.92 2.09 2.13 2.15 2.60 2.55 2.33 2.33 2.45 2.48 2.33 2.17 2.04 1.73 1.46 1.25 1.14 1.03 0.80 0.64 0.59 0.55 0.48 0.45 0.47 0.52 0.47 0.36
2.87 2.73 2.48 2.18 2.08 2.14 2.27 2.28 2.31 2.40 2.26 2.18 1.96 2.03 1.99 1.88 1.78 1.81 1.95 2.18 2.12 1.95 1.94 2.04 2.25 2.43 2.58 2.57 2.36 2.18 1.75 1.37 1.15 0.90 0.71 0.58 0.51 0.45 0.44 0.46 0.52 0.51 0.39
2.74 2.66 2.33 1.99 2.04 2.15 2.15 2.13 2.03 2.12 2.14 2.20 2.17 2.03 2.11 1.97 1.61 1.57 1.64 1.61 1.69 1.56 1.69 1.79 1.90 2.11 2.57 2.94 3.04 2.92 2.49 1.83 1.38 1.09 0.88 0.70 0.58 0.48 0.43 0.44 0.48 0.48 0.37
2.48 2.55 2.25 2.09 2.02 2.01 1.92 1.80 2.00 2.14 2.14 2.17 2.04 1.92 1.74 1.58 1.33 1.19 1.17 1.07 1.18 1.37 1.51 1.59 1.65 1.76 2.25 2.95 3.54 3.69 3.35 2.59 1.92 1.46 1.23 1.04 0.85 0.65 0.51 0.47 0.46 0.41 0.34
2.11 2.21 1.99 1.90 1.98 2.00 1.84 1.87 2.04 2.08 1.90 1.96 1.83 1.64 1.47 1.24 1.12 1.01 0.87 0.86 0.81 0.79 0.99 1.33 1.62 1.41 1.75 2.34 2.97 3.42 3.66 3.32 2.63 2.12 1.71 1.39 1.19 0.95 0.68 0.57 0.50 0.45 0.38
1.71 1.90 1.70 1.79 1.80 1.75 1.62 1.58 1.67 1.68 1.50 1.74 1.93 1.52 1.17 1.01 0.91 0.79 0.77 0.81 0.74 0.80 0.99 1.24 1.42 1.52 1.43 1.49 1.82 2.33 3.13 3.51 3.22 2.69 2.25 1.86 1.58 1.31 0.96 0.75 0.65 0.54 0.49
1.68 1.54 1.58 1.50 1.51 1.59 1.44 1.35 1.48 1.48 1.27 1.48 1.60 1.53 1.17 1.02 0.87 0.63 0.66 0.66 0.71 0.87 0.90 0.97 1.20 1.37 1.30 1.59 1.36 1.40 2.10 2.80 3.20 3.10 2.70 2.22 1.86 1.56 1.26 1.04 0.83 0.66 0.56
1.85 1.71 1.57 1.41 1.36 1.31 1.30 1.27 1.34 1.37 1.27 1.22 1.27 1.43 1.21 0.96 0.80 0.59 0.53 0.58 0.76 0.93 0.89 0.97 1.02 1.18 1.21 1.41 1.47 1.40 1.44 1.80 2.49 3.18 3.19 2.64 2.03 1.56 1.28 1.23 1.15 0.91 0.72
2.10 1.86 1.69 1.45 1.23 1.13 1.23 1.05 1.10 1.28 1.33 1.14 1.07 1.08 1.09 1.19 1.13 0.83 0.56 0.50 0.70 0.80 0.83 0.81 0.89 1.10 1.20 1.38 1.52 1.61 1.43 1.37 1.77 2.56 3.06 2.98 2.49 1.90 1.52 1.44 1.61 1.53 1.12
1.88 1.63 1.49 1.38 1.16 1.03 1.04 1.03 1.15 1.17 1.17 1.07 1.05 1.02 1.09 1.22 1.19 1.11 0.84 0.72 0.72 0.65 0.63 0.68 0.82 0.99 1.12 1.37 1.67 1.75 1.85 1.60 1.51 1.72 2.12 2.40 2.49 2.25 1.93 1.85 2.22 2.44 2.08
1.53 1.41 1.29 1.24 1.11 1.04 1.04 1.00 1.05 1.11 1.16 1.19 1.18 1.18 1.21 1.20 1.24 1.36 1.18 1.00 0.91 0.75 0.70 0.80 0.93 1.10 1.23 1.37 1.44 1.59 1.64 1.67 1.60 1.55 1.60 1.74 1.94 2.07 2.11 2.19 2.50 2.82 2.92
1.15 1.15 1.17 1.18 1.11 1.10 1.13 1.19 1.17 1.12 1.15 1.22 1.21 1.26 1.30 1.25 1.32 1.45 1.42 1.21 1.09 1.04 1.07 1.07 1.06 1.22 1.22 1.36 1.51 1.39 1.18 1.26 1.28 1.26 1.26 1.26 1.36 1.58 1.72 1.83 2.15 2.51 2.80
1.05 1.07 1.20 1.23 1.14 1.09 1.04 1.19 1.18 1.20 1.24 1.24 1.18 1.35 1.40 1.27 1.41 1.58 1.63 1.60 1.45 1.43 1.48 1.46 1.22 1.15 1.19 1.30 1.43 1.31 1.19 1.10 0.89 0.80 0.80 0.84 0.88 1.01 1.16 1.33 1.52 1.72 1.97
1.15 1.21 1.25 1.31 1.29 1.26 1.24 1.30 1.23 1.29 1.45 1.46 1.40 1.44 1.47 1.40 1.45 1.57 1.70 1.78 1.78 1.73 1.70 1.63 1.35 1.20 1.14 1.17 1.27 1.29 1.41 1.23 0.84 0.66 0.59 0.58 0.60 0.66 0.74 0.88 1.02 1.18 1.32
1.26 1.29 1.28 1.29 1.32 1.30 1.28 1.35 1.34 1.40 1.55 1.59 1.63 1.71 1.66 1.55 1.59 1.63 1.67 1.81 1.95 1.97 1.82 1.59 1.40 1.27 1.22 1.09 1.13 1.08 1.14 1.01 0.74 0.62 0.55 0.52 0.50 0.51 0.57 0.64 0.72 0.85 0.97
1.25 1.27 1.22 1.19 1.15 1.18 1.31 1.45 1.42 1.45 1.51 1.56 1.57 1.55 1.52 1.53 1.57 1.47 1.52 1.64 1.82 1.98 1.83 1.67 1.56 1.52 1.49 1.40 1.25 1.03 0.86 0.77 0.68 0.66 0.57 0.52 0.50 0.51 0.50 0.52 0.56 0.64 0.74
1.23 1.22 1.16 1.13 1.10 1.19 1.36 1.46 1.53 1.70 1.79 1.72 1.61 1.51 1.39 1.44 1.51 1.49 1.57 1.58 1.65 1.88 1.87 1.79 1.75 1.77 1.69 1.52 1.41 1.24 0.98 0.85 0.82 0.78 0.65 0.56 0.49 0.49 0.48 0.48 0.53 0.58 0.66
1.22 1.20 1.20 1.24 1.31 1.41 1.54 1.62 1.67 1.81 1.80 1.67 1.61 1.49 1.40 1.42 1.44 1.53 1.61 1.59 1.56 1.61 1.77 1.77 1.75 1.84 1.80 1.61 1.47 1.31 1.17 1.20 1.07 0.89 0.71 0.61 0.54 0.49 0.47 0.45 0.52 0.61 0.74
1.11 1.17 1.34 1.53 1.64 1.70 1.73 1.78 1.78 1.74 1.68 1.55 1.45 1.35 1.36 1.46 1.51 1.52 1.46 1.45 1.47 1.56 1.65 1.68 1.70 1.81 1.86 1.79 1.60 1.45 1.41 1.37 1.25 0.94 0.81 0.69 0.59 0.50 0.45 0.40 0.43 0.56 0.71
1.16 1.33 1.50 1.62 1.62 1.62 1.66 1.75 1.74 1.67 1.59 1.45 1.32 1.12 1.08 1.27 1.39 1.42 1.30 1.36 1.41 1.45 1.47 1.55 1.62 1.74 1.82 1.94 1.75 1.52 1.44 1.47 1.40 1.25 1.10 0.89 0.75 0.66 0.62 0.58 0.50 0.50 0.56
1.34 1.48 1.54 1.53 1.46 1.21 1.22 1.30 1.36 1.40 1.40 1.32 1.19 1.11 1.08 1.11 1.09 1.06 1.05 1.07 1.13 1.22 1.37 1.55 1.64 1.67 1.69 1.80 1.86 1.78 1.70 1.64 1.59 1.52 1.56 1.42 1.14 1.06 1.01 0.95 0.80 0.57 0.47
1.42 1.48 1.48 1.45 1.39 1.34 1.21 1.08 1.06 1.13 1.20 1.18 1.18 1.20 1.00 0.89 0.98 0.98 1.00 0.93 0.86 0.88 0.99 1.22 1.43 1.49 1.61 1.64 1.88 1.90 1.91 1.99 1.95 1.90 1.93 1.90 1.59 1.34 1.14 1.07 0.98 0.73 0.57
1.59 1.56 1.53 1.48 1.49 1.45 1.33 1.14 1.02 0.98 1.13 1.19 1.17 1.17 1.15 1.09 1.06 1.11 1.13 1.04 0.91 0.85 0.83 0.85 1.05 1.31 1.52 1.75 1.81 1.85 1.93 1.98 1.97 1.85 1.84 1.90 1.77 1.65 1.36 1.07 0.96 0.85 0.71
1.73 1.72 1.75 1.72 1.70 1.68 1.47 1.17 1.04 1.06 1.23 1.26 1.26 1.23 1.20 1.16 1.15 1.03 1.01 1.01 0.99 0.95 0.79 0.77 0.83 1.01 1.18 1.27 1.48 1.69 1.83 1.78 1.69 1.49 1.38 1.49 1.55 1.60 1.60 1.41 1.08 0.98 0.84
1.93 1.88 1.81 1.77 1.72 1.73 1.64 1.25 1.09 1.13 1.31 1.35 1.41 1.38 1.24 1.11 1.03 0.90 0.90 1.02 0.98 0.94 0.93 0.85 0.74 0.77 0.87 1.01 1.09 1.19 1.44 1.61 1.51 1.43 1.23 1.17 1.15 1.26 1.38 1.28 1.10 1.03 1.02